Home   Weather   Wädenswil   Past weeks

Flag for Switzerland Past Weather in Wädenswil, Zurich, Switzerland — Yesterday and Last 2 Weeks

Now
61 °F

Refreshingly cool.


Feels Like: 61 °F
Forecast: 35 / 46 °F
Wind: 22 mph from Southwest

Location: Zuerich-Fluntern

Current Time: Feb 23, 2017 at 7:49:15 pm

Latest Report: Feb 23, 2017 at 6:00 pm


Visibility: N/A

Pressure: 29.60 "Hg

Humidity: 22%

Dew Point: 22 °F

Location of WädenswilLocation

Past Weather in Wädenswil — Graph

°F

Wädenswil Temperature Yesterday

Maximum temperature yesterday: 56 °F (at 1:00 pm)
Minimum temperature yesterday: 44 °F (at 11:00 pm)
Average temperature yesterday: 48 °F

High & Low Weather Summary for the Past Weeks

 TemperatureHumidityPressure
High66 °F (Feb 23, 3:00 pm)100% (Feb 12, 7:00 am)30.65 "Hg (Feb 12, 7:00 am)
Low28 °F (Feb 9, 7:00 am)17% (Feb 23, 4:00 pm)29.59 "Hg (Feb 23, 5:00 pm)
Average38 °F80%30.27 "Hg
* Reported Feb 8 6:00 pm — Feb 23 6:00 pm, Wädenswil, Weather by CustomWeather, © 2017

Note: Actual official high and low records may vary slightly from our data, if they occured in-between our weather recording intervals... More about our weather records

Advertising

Wädenswil Weather History for the Previous 24 Hours

Scroll right to see more
 ConditionsComfort  
Time TempWeatherWind HumidityBarometerVisibility
6:00 pm
Thu, Feb 23
61 °FRefreshingly cool.22 mph22%29.60 "HgN/A
5:00 pm62 °FMild.28 mph20%29.59 "HgN/A
4:00 pm65 °FMild.30 mph17%29.59 "HgN/A
3:00 pm66 °FMild.28 mph18%29.61 "HgN/A
2:00 pm63 °FMild.20 mph25%29.66 "HgN/A
1:00 pm61 °FPartly sunny.13 mph29%29.72 "HgN/A
12:00 pm55 °FCool.3 mph43%29.78 "HgN/A
11:00 am51 °FCool.5 mph53%29.82 "HgN/A
10:00 am50 °FCool.3 mph55%29.84 "HgN/A
9:00 am45 °FCool.3 mph69%29.88 "HgN/A
8:00 am38 °FChilly.2 mph89%29.93 "HgN/A
7:00 am42 °FQuite cool.2 mph78%29.93 "HgN/A
6:00 am39 °FChilly.2 mph92%29.98 "HgN/A
5:00 am39 °FChilly.1 mph89%29.99 "HgN/A
4:00 am38 °FChilly.1 mph92%30.01 "HgN/A
3:00 am38 °FChilly.1 mph91%30.02 "HgN/A
2:00 am39 °FChilly.1 mph89%30.03 "HgN/A
1:00 am41 °FQuite cool.2 mph85%30.03 "HgN/A
12:00 am42 °FQuite cool.1 mph83%30.03 "HgN/A
11:00 pm
Wed, Feb 22
44 °FQuite cool.3 mph77%30.04 "HgN/A
10:00 pm45 °FCool.5 mph74%30.05 "HgN/A
9:00 pm46 °FCool.6 mph72%30.05 "HgN/A
8:00 pm46 °FCool.7 mph72%30.04 "HgN/A
7:00 pm46 °FPassing clouds.7 mph72%30.05 "HgN/A
Weather by CustomWeather, © 2017

See weather overviewHow to use our weather pages